When you browse on this site, cookies collect data to enhance your experience and personalize the content and advertising you see.
Visit our Privacy Policy to learn more. By continuing to use the site, you agree to this use of cookies and data.
  • In France
  • List of Countries
  • For 7 days
  • Water Temperature
  • Weather Map
  • Weather Widgets
  • user-avatar
    Login

    Hourly Weather Winnipeg

    Today, 9 April, Thursday

    Time Temperature Precipitation Wind Pressure Humidity
    00:00 -5°C° 0 mm 5 mps 736 mmHg 77%
    01:00 -5°C° 0 mm 6 mps 737 mmHg 73%
    02:00 -5°C° 0 mm 6 mps 737 mmHg 69%
    03:00 -6°C° 0 mm 6 mps 737 mmHg 64%
    04:00 -7°C° 0.1 mm 7 mps 737 mmHg 70%
    05:00 -7°C° 0.1 mm 7 mps 738 mmHg 75%
    06:00 -8°C° 0 mm 7 mps 739 mmHg 79%
    07:00 -7°C° 0.1 mm 8 mps 740 mmHg 76%
    08:00 -6°C° 0.1 mm 8 mps 741 mmHg 73%
    09:00 -6°C° 0.1 mm 8 mps 741 mmHg 70%
    10:00 -5°C° 0 mm 8 mps 742 mmHg 66%
    11:00 -4°C° 0 mm 8 mps 742 mmHg 62%
    12:00 -3°C° 0 mm 7 mps 743 mmHg 58%
    13:00 -3°C° 0 mm 7 mps 743 mmHg 57%
    14:00 -2°C° 0 mm 7 mps 743 mmHg 57%
    15:00 -2°C° 0 mm 7 mps 743 mmHg 56%
    16:00 -3°C° 0 mm 7 mps 743 mmHg 55%
    17:00 -3°C° 0 mm 6 mps 743 mmHg 54%
    18:00 -2°C° 0 mm 5 mps 742 mmHg 54%
    19:00 -3°C° 0 mm 4 mps 742 mmHg 58%
    20:00 -2°C° 0 mm 3 mps 742 mmHg 62%
    21:00 -3°C° 0 mm 2 mps 742 mmHg 66%
    22:00 -3°C° 0 mm 2 mps 742 mmHg 67%
    23:00 -3°C° 0 mm 2 mps 742 mmHg 68%

    Tomorrow, 10 April, Friday

    Time Temperature Precipitation Wind Pressure Humidity
    00:00 -1°C° 0 mm 1 mps 741 mmHg 70%
    01:00 -3°C° 0 mm 2 mps 741 mmHg 68%
    02:00 -3°C° 0 mm 2 mps 740 mmHg 67%
    03:00 -3°C° 0 mm 2 mps 740 mmHg 65%
    04:00 -4°C° 0 mm 3 mps 739 mmHg 63%
    05:00 -2°C° 0 mm 3 mps 739 mmHg 62%
    06:00 -2°C° 0 mm 3 mps 738 mmHg 60%
    07:00 -1°C° 0 mm 3 mps 738 mmHg 56%
    08:00 -1°C° 0 mm 4 mps 737 mmHg 52%
    09:00 0°C° 0 mm 4 mps 736 mmHg 48%
    10:00 +3°C° 0 mm 4 mps 736 mmHg 45%
    11:00 +5°C° 0 mm 4 mps 735 mmHg 42%
    12:00 +6°C° 0 mm 4 mps 735 mmHg 39%
    13:00 +7°C° 0 mm 4 mps 734 mmHg 41%
    14:00 +8°C° 0 mm 4 mps 734 mmHg 42%
    15:00 +10°C° 0 mm 4 mps 734 mmHg 44%
    16:00 +8°C° 0 mm 4 mps 733 mmHg 51%
    17:00 +8°C° 0 mm 3 mps 733 mmHg 58%
    18:00 +7°C° 0 mm 3 mps 733 mmHg 65%
    19:00 +5°C° 0 mm 3 mps 733 mmHg 70%
    20:00 +4°C° 0 mm 3 mps 734 mmHg 75%
    21:00 +3°C° 0 mm 3 mps 734 mmHg 80%
    22:00 +2°C° 0 mm 3 mps 734 mmHg 83%
    23:00 +1°C° 0 mm 3 mps 734 mmHg 87%

    Day after tomorrow, 11 April, Saturday

    Time Temperature Precipitation Wind Pressure Humidity
    00:00 0°C° 0 mm 3 mps 735 mmHg 91%
    01:00 0°C° 0 mm 3 mps 735 mmHg 90%
    02:00 0°C° 0 mm 3 mps 735 mmHg 89%
    03:00 -2°C° 0 mm 4 mps 735 mmHg 88%
    04:00 -2°C° 0 mm 4 mps 736 mmHg 85%
    05:00 -3°C° 0 mm 4 mps 736 mmHg 82%
    06:00 -4°C° 0 mm 4 mps 736 mmHg 79%
    07:00 -3°C° 0 mm 4 mps 736 mmHg 74%
    08:00 -2°C° 0 mm 5 mps 736 mmHg 70%
    09:00 -2°C° 0 mm 5 mps 737 mmHg 65%
    10:00 -2°C° 0 mm 6 mps 737 mmHg 61%
    11:00 -2°C° 0 mm 6 mps 737 mmHg 57%
    12:00 -2°C° 0 mm 7 mps 737 mmHg 54%
    13:00 -2°C° 0 mm 7 mps 737 mmHg 53%
    14:00 -1°C° 0 mm 7 mps 737 mmHg 52%
    15:00 -1°C° 0 mm 7 mps 737 mmHg 51%
    16:00 -2°C° 0 mm 7 mps 737 mmHg 52%
    17:00 -2°C° 0 mm 6 mps 737 mmHg 53%
    18:00 -3°C° 0 mm 6 mps 737 mmHg 54%
    19:00 -3°C° 0 mm 6 mps 738 mmHg 57%
    20:00 -4°C° 0 mm 5 mps 738 mmHg 60%
    21:00 -5°C° 0 mm 5 mps 739 mmHg 63%
    22:00 -5°C° 0 mm 5 mps 739 mmHg 62%
    23:00 -6°C° 0 mm 6 mps 739 mmHg 61%

    12 April, Sunday

    Time Temperature Precipitation Wind Pressure Humidity
    00:00 -6°C° 0 mm 6 mps 739 mmHg 61%
    01:00 -8°C° 0 mm 6 mps 740 mmHg 63%
    02:00 -8°C° 0 mm 6 mps 740 mmHg 65%
    03:00 -8°C° 0 mm 6 mps 740 mmHg 68%
    04:00 -9°C° 0 mm 6 mps 740 mmHg 70%
    05:00 -9°C° 0 mm 6 mps 740 mmHg 73%
    06:00 -9°C° 0 mm 6 mps 741 mmHg 75%
    07:00 -9°C° 0.1 mm 6 mps 741 mmHg 74%
    08:00 -8°C° 0.1 mm 6 mps 742 mmHg 72%
    09:00 -8°C° 0.1 mm 6 mps 742 mmHg 70%
    10:00 -6°C° 0 mm 6 mps 742 mmHg 64%
    11:00 -6°C° 0 mm 6 mps 742 mmHg 59%
    12:00 -5°C° 0 mm 6 mps 742 mmHg 54%
    13:00 -5°C° 0 mm 6 mps 742 mmHg 51%
    14:00 -5°C° 0 mm 6 mps 742 mmHg 47%
    15:00 -4°C° 0 mm 6 mps 742 mmHg 44%
    16:00 -5°C° 0 mm 6 mps 742 mmHg 44%
    17:00 -5°C° 0 mm 6 mps 742 mmHg 43%
    18:00 -5°C° 0 mm 5 mps 742 mmHg 42%
    19:00 -6°C° 0 mm 5 mps 742 mmHg 45%
    20:00 -7°C° 0 mm 5 mps 742 mmHg 47%
    21:00 -7°C° 0 mm 4 mps 743 mmHg 50%
    22:00 -8°C° 0 mm 4 mps 743 mmHg 54%
    23:00 -8°C° 0 mm 4 mps 742 mmHg 59%

    13 April, Monday

    Time Temperature Precipitation Wind Pressure Humidity
    00:00 -8°C° 0 mm 4 mps 742 mmHg 63%
    01:00 -8°C° 0 mm 4 mps 742 mmHg 62%
    02:00 -10°C° 0 mm 5 mps 742 mmHg 61%
    03:00 -10°C° 0 mm 5 mps 741 mmHg 60%
    04:00 -10°C° 0 mm 5 mps 741 mmHg 60%
    05:00 -11°C° 0 mm 5 mps 741 mmHg 61%
    06:00 -11°C° 0 mm 6 mps 741 mmHg 62%
    07:00 -11°C° 0 mm 6 mps 741 mmHg 62%
    08:00 -10°C° 0 mm 6 mps 741 mmHg 62%
    09:00 -11°C° 0 mm 7 mps 741 mmHg 62%
    10:00 -9°C° 0.1 mm 7 mps 741 mmHg 63%
    11:00 -8°C° 0.1 mm 7 mps 741 mmHg 63%
    12:00 -7°C° 0.1 mm 7 mps 741 mmHg 63%
    13:00 -7°C° 0 mm 7 mps 741 mmHg 58%
    14:00 -6°C° 0 mm 7 mps 741 mmHg 53%
    15:00 -6°C° 0 mm 7 mps 741 mmHg 48%
    16:00 -6°C° 0 mm 7 mps 741 mmHg 47%
    17:00 -6°C° 0 mm 7 mps 742 mmHg 46%
    18:00 -7°C° 0 mm 7 mps 742 mmHg 45%
    19:00 -8°C° 0 mm 6 mps 742 mmHg 46%
    20:00 -8°C° 0 mm 6 mps 743 mmHg 48%
    21:00 -9°C° 0 mm 6 mps 743 mmHg 49%
    22:00 -10°C° 0 mm 6 mps 743 mmHg 49%
    23:00 -10°C° 0 mm 6 mps 744 mmHg 49%

    14 April, Tuesday

    Time Temperature Precipitation Wind Pressure Humidity
    00:00 -11°C° 0 mm 6 mps 744 mmHg 49%
    01:00 -11°C° 0 mm 6 mps 744 mmHg 53%
    02:00 -12°C° 0 mm 5 mps 744 mmHg 58%
    03:00 -12°C° 0 mm 5 mps 744 mmHg 62%
    04:00 -12°C° 0 mm 5 mps 744 mmHg 64%
    05:00 -13°C° 0 mm 5 mps 744 mmHg 65%
    06:00 -13°C° 0 mm 5 mps 745 mmHg 67%
    07:00 -12°C° 0 mm 5 mps 745 mmHg 62%
    08:00 -11°C° 0 mm 6 mps 745 mmHg 57%
    09:00 -11°C° 0 mm 6 mps 746 mmHg 52%
    10:00 -10°C° 0 mm 6 mps 746 mmHg 49%
    11:00 -8°C° 0 mm 5 mps 746 mmHg 46%
    12:00 -7°C° 0 mm 5 mps 746 mmHg 42%
    13:00 -6°C° 0 mm 5 mps 746 mmHg 41%
    14:00 -6°C° 0 mm 5 mps 746 mmHg 40%
    15:00 -5°C° 0 mm 5 mps 745 mmHg 39%
    16:00 -6°C° 0 mm 5 mps 745 mmHg 41%
    17:00 -6°C° 0 mm 5 mps 745 mmHg 42%
    18:00 -6°C° 0 mm 5 mps 745 mmHg 43%
    19:00 -7°C° 0 mm 4 mps 745 mmHg 46%
    20:00 -7°C° 0 mm 4 mps 745 mmHg 49%
    21:00 -7°C° 0 mm 3 mps 746 mmHg 51%
    22:00 -7°C° 0 mm 3 mps 746 mmHg 52%
    23:00 -7°C° 0 mm 2 mps 746 mmHg 52%
    Show more